This is the latest recevied weather packets stored in our database for station/object 9A3XK-13. If no packets are shown the sender has not sent any weather packets the latest 10 day(s).
| Time | Temp. | Humidity | Pressure | Rain* | Wind** | Luminosity | Snow |
|---|---|---|---|---|---|---|---|
| 1777968616 | 22.78° C | 44% | 1014 hPa | 0 mm | - | 692 W/m² | - |
| 1777968317 | 22.22° C | 46% | 1014 hPa | 0 mm | - | 681 W/m² | - |
| 1777968017 | 22.22° C | 46% | 1014 hPa | 0 mm | - | 666 W/m² | - |
| 1777967716 | 21.67° C | 47% | 1014.1 hPa | 0 mm | - | 643 W/m² | - |
| 1777967416 | 21.67° C | 48% | 1014.2 hPa | 0 mm | - | 631 W/m² | - |
| 1777967117 | 21.67° C | 48% | 1014.2 hPa | 0 mm | - | 622 W/m² | - |
| 1777966816 | 21.11° C | 51% | 1014.1 hPa | 0 mm | - | 613 W/m² | - |
| 1777966517 | 21.11° C | 50% | 1014.2 hPa | 0 mm | - | 561 W/m² | - |
| 1777966216 | 20.56° C | 51% | 1014.2 hPa | 0 mm | - | 568 W/m² | - |
| 1777965986 | 20.56° C | 53% | 1014.3 hPa | 0 mm | - | 543 W/m² | - |
| 1777965616 | 20.56° C | 54% | 1014.3 hPa | 0 mm | - | 478 W/m² | - |
| 1777965316 | 20° C | 53% | 1014.3 hPa | 0 mm | - | 523 W/m² | - |
| 1777965016 | 20° C | 57% | 1014.4 hPa | 0 mm | - | 543 W/m² | - |
| 1777964733 | 19.44° C | 56% | 1014.4 hPa | 0 mm | - | 536 W/m² | - |
| 1777964416 | 18.89° C | 57% | 1014.4 hPa | 0 mm | - | 507 W/m² | - |
| 1777964116 | 18.33° C | 59% | 1014.4 hPa | 0 mm | - | 446 W/m² | - |
| 1777963816 | 18.33° C | 60% | 1014.5 hPa | 0 mm | - | 351 W/m² | - |
| 1777963516 | 17.78° C | 62% | 1014.4 hPa | 0 mm | - | 458 W/m² | - |
| 1777963216 | 17.78° C | 63% | 1014.4 hPa | 0 mm | - | 441 W/m² | - |
| 1777962916 | 17.22° C | 65% | 1014.4 hPa | 0 mm | - | 286 W/m² | - |
| 1777962616 | 16.67° C | 68% | 1014.4 hPa | 0 mm | - | 273 W/m² | - |
| 1777962316 | 16.67° C | 69% | 1014.4 hPa | 0 mm | - | 427 W/m² | - |
| 1777962016 | 16.11° C | 69% | 1014.3 hPa | 0 mm | - | 419 W/m² | - |
| 1777961716 | 15.56° C | 69% | 1014.3 hPa | 0 mm | - | 387 W/m² | - |
| 1777961416 | 15.56° C | 70% | 1014.2 hPa | 0 mm | - | 339 W/m² | - |
* Rain latest hour (hover to see other rain measurements)
** Current wind speed in m/s (hover to see current wind gust speed)